Overview Statistics Trail Chart Weather Telemetry Raw packets
 

This is the latest recevied weather packets stored in our database for station/object SV9TNF-56. If no packets are shown the sender has not sent any weather packets the latest 10 day(s).

<< 1 2 3 4 5 >>
Time Temp. Humidity Pressure Rain* Wind** Luminosity Snow
1788657478 23.33° C 65% 1013.2 hPa 0 mm 7.15 m/s, 258° - -
1788657178 23.33° C 68% 1013.2 hPa 0 mm 13.86 m/s, 282° - -
1788656878 23.89° C 67% 1013.2 hPa 0 mm 13.41 m/s, 244° - -
1788656578 23.33° C 68% 1013.2 hPa 0 mm 11.18 m/s, 270° - -
1788656277 23.33° C 68% 1013.6 hPa 0 mm 10.28 m/s, 306° - -
1788655978 23.33° C 70% 1013.2 hPa 0 mm 14.75 m/s, 279° - -
1788655678 23.33° C 71% 1013.2 hPa 0 mm 8.94 m/s, 207° - -
1788655377 23.33° C 71% 1013.2 hPa 0 mm 14.75 m/s, 278° - -
1788655077 23.33° C 73% 1013.2 hPa 0 mm 12.52 m/s, 288° - -
1788654777 23.33° C 74% 1013.6 hPa 0 mm 13.86 m/s, 276° - -
1788654477 23.33° C 75% 1013.2 hPa 0 mm 12.96 m/s, 306° - -
1788654177 23.33° C 75% 1013.6 hPa 0 mm 15.2 m/s, 238° - -
1788653877 23.33° C 73% 1013.2 hPa 0 mm 12.52 m/s, 312° - -
1788653577 23.33° C 73% 1013.2 hPa 0 mm 13.86 m/s, 288° - -
1788653277 23.33° C 73% 1013.6 hPa 0 mm 15.2 m/s, 277° - -
1788652977 23.33° C 72% 1013.2 hPa 0 mm 13.86 m/s, 258° - -
1788652676 23.89° C 71% 1013.6 hPa 0 mm 16.09 m/s, 275° - -
1788652376 23.33° C 68% 1013.2 hPa 0 mm 17.88 m/s, 300° - -
1788652077 23.33° C 68% 1013.2 hPa 0 mm 14.31 m/s, 271° - -
1788651778 23.89° C 69% 1013.2 hPa 0 mm 13.41 m/s, 289° - -
1788651476 23.33° C 68% 1013.6 hPa 0 mm 17.88 m/s, 234° - -
1788651176 23.33° C 67% 1013.6 hPa 0 mm 15.2 m/s, 295° - -
1788650876 23.89° C 66% 1013.2 hPa 0 mm 16.09 m/s, 283° - -
1788650576 23.89° C 65% 1013.6 hPa 0 mm 14.31 m/s, 285° - -
1788650275 23.89° C 65% 1013.6 hPa 0 mm 12.52 m/s, 265° - -

* Rain latest hour (hover to see other rain measurements)
** Current wind speed in m/s (hover to see current wind gust speed)